Starlink 3297

operational
NORAD ID: 50159 Int'l Des: 2021-125 Owner: SPXS Country: US Constellation: starlink
LEOCIRCULAR

Starlink 3297について

説明を読み込み中...

リアルタイム位置

3D地球を読み込み中...

次回通過

高度履歴

Altitude vs Time

uPlot chart will show altitude changes over time

軌道要素

1 50159U 21125D 25351.16027723 .00000575 00000-0 54183-4 0 9997
2 50159 53.2170 269.6212 0001275 84.0221 276.0916 15.08838181223999
Epoch: Dec 17, 2025 • Age: 14 hours

現在のステータス

高度 550.3 km
速度 7.59 km/s
衛星直下点 -32.06°S, 125.1°E
打ち上げ日 Dec 18, 2021
運用期間 3.9 years
タイプ internet

技術仕様

分類 Payload
質量 290.00 kg
乾燥質量 270.00 kg
総質量 290.00 kg
長さ 0.20 m
直径 2.80 m
スパン 9.00 m
形状 Box + pan
製造者 SPXS
バスタイプ Starlink
フェーズステータス In Orbit
所有者/国 SPXS/US

大規模コンステレーション

Loading constellations...